| time (UTC) | temp C | wind direction | speed KPH | gust KPH | rain 1hr cm | rain 24hr cm | rain mn cm | humidity % | barometer mb |
| 20260507131029 | 7 | 281 | 6.4 | 12.9 | 0.00 | 1.52 | 0.00 | 84 | 1007.0 |
| 20260507130532 | 7 | 267 | 4.8 | 12.9 | 0.00 | 1.52 | 0.00 | 86 | 1006.9 |
| 20260507130048 | 7 | 310 | 3.2 | 16.1 | 0.00 | 1.52 | 0.00 | 86 | 1007.0 |
| 20260507125528 | 7 | 265 | 4.8 | 16.1 | 0.00 | 1.52 | 0.00 | 87 | 1006.9 |
| 20260507125031 | 7 | 261 | 4.8 | 11.3 | 0.00 | 1.52 | 0.00 | 87 | 1007.0 |
| 20260507124535 | 7 | 241 | 3.2 | 11.3 | 0.00 | 1.52 | 0.00 | 90 | 1007.0 |
| 20260507124028 | 6 | 292 | 6.4 | 11.3 | 0.00 | 1.52 | 0.00 | 87 | 1007.0 |
| 20260507123536 | 6 | 266 | 3.2 | 12.9 | 0.00 | 1.52 | 0.00 | 89 | 1007.0 |
| 20260507123047 | 6 | 251 | 6.4 | 12.9 | 0.00 | 1.52 | 0.00 | 87 | 1006.9 |
| 20260507122527 | 6 | 236 | 4.8 | 12.9 | 0.00 | 1.52 | 0.00 | 88 | 1006.9 |
| 20260507122029 | 6 | 254 | 6.4 | 14.5 | 0.00 | 1.52 | 0.00 | 87 | 1006.9 |
| 20260507121542 | 6 | 234 | 4.8 | 14.5 | 0.00 | 1.52 | 0.00 | 89 | 1006.8 |
| 20260507121030 | 6 | 252 | 4.8 | 14.5 | 0.00 | 1.52 | 0.00 | 89 | 1006.8 |
| 20260507120529 | 6 | 258 | 4.8 | 14.5 | 0.00 | 1.52 | 0.00 | 91 | 1006.7 |
| 20260507120039 | 6 | 250 | 3.2 | 11.3 | 0.00 | 1.52 | 0.00 | 93 | 1006.7 |
| 20260507115550 | 5 | 329 | 3.2 | 8.0 | 0.00 | 1.52 | 0.00 | 94 | 1006.7 |
| 20260507115030 | 5 | 344 | 0.0 | 11.3 | 0.00 | 1.52 | 0.00 | 94 | 1006.8 |
| 20260507114545 | 5 | 0 | 1.6 | 11.3 | 0.00 | 1.52 | 0.00 | 94 | 1006.8 |
| 20260507114027 | 5 | 283 | 1.6 | 6.4 | 0.00 | 1.52 | 0.00 | 94 | 1006.8 |
| 20260507113529 | 5 | 265 | 3.2 | 6.4 | 0.00 | 1.52 | 0.00 | 95 | 1006.8 |
| 20260507113036 | 5 | 274 | 1.6 | 9.7 | 0.00 | 1.52 | 0.00 | 95 | 1006.7 |
| 20260507112529 | 5 | 277 | 3.2 | 9.7 | 0.00 | 1.52 | 0.00 | 95 | 1006.7 |
| 20260507112029 | 5 | 288 | 3.2 | 11.3 | 0.00 | 1.52 | 0.00 | 96 | 1006.7 |
| 20260507111542 | 5 | 256 | 1.6 | 11.3 | 0.00 | 1.52 | 0.00 | 96 | 1006.7 |
| 20260507111026 | 5 | 285 | 3.2 | 6.4 | 0.00 | 1.52 | 0.00 | 96 | 1006.7 |
| 20260507110528 | 5 | 265 | 1.6 | 9.7 | 0.00 | 1.52 | 0.00 | 96 | 1006.7 |
| 20260507110046 | 5 | 291 | 3.2 | 9.7 | 0.00 | 1.52 | 0.00 | 96 | 1006.7 |
| 20260507105529 | 4 | 270 | 3.2 | 9.7 | 0.00 | 1.52 | 0.00 | 96 | 1006.6 |
| 20260507105029 | 4 | 294 | 1.6 | 6.4 | 0.00 | 1.52 | 0.00 | 96 | 1006.7 |
| 20260507104540 | 4 | 0 | 1.6 | 9.7 | 0.00 | 1.52 | 0.00 | 96 | 1006.5 |
| 20260507104027 | 4 | 276 | 3.2 | 9.7 | 0.00 | 1.52 | 0.00 | 96 | 1006.6 |
| 20260507103529 | 3 | 0 | 1.6 | 4.8 | 0.00 | 1.52 | 0.00 | 96 | 1006.5 |
| 20260507103049 | 3 | 284 | 1.6 | 4.8 | 0.00 | 1.52 | 0.00 | 96 | 1006.5 |
| 20260507102529 | 3 | 0 | 1.6 | 4.8 | 0.00 | 1.52 | 0.00 | 96 | 1006.5 |
| 20260507102029 | 3 | 284 | 1.6 | 4.8 | 0.00 | 1.52 | 0.00 | 96 | 1006.4 |
| 20260507101546 | 3 | 288 | 0.0 | 6.4 | 0.00 | 1.52 | 0.00 | 96 | 1006.5 |
| 20260507101027 | 3 | 287 | 1.6 | 6.4 | 0.00 | 1.52 | 0.00 | 96 | 1006.5 |
| 20260507100527 | 3 | 257 | 1.6 | 4.8 | 0.00 | 1.52 | 0.00 | 95 | 1006.6 |
| 20260507100044 | 3 | 267 | 1.6 | 4.8 | 0.00 | 1.52 | 0.00 | 95 | 1006.4 |
| 20260507095527 | 3 | 267 | 1.6 | 4.8 | 0.00 | 1.52 | 0.00 | 95 | 1006.4 |
| 20260507095030 | 3 | 300 | 0.0 | 4.8 | 0.00 | 1.52 | 0.00 | 95 | 1006.4 |
| 20260507094553 | 3 | 279 | 0.0 | 4.8 | 0.00 | 1.52 | 0.00 | 95 | 1006.5 |
| 20260507094029 | 3 | 270 | 1.6 | 4.8 | 0.00 | 1.52 | 0.00 | 95 | 1006.5 |
| 20260507093529 | 3 | 257 | 1.6 | 6.4 | 0.00 | 1.52 | 0.00 | 95 | 1006.6 |
| 20260507093040 | 4 | 265 | 1.6 | 6.4 | 0.00 | 1.52 | 0.00 | 95 | 1006.4 |
| 20260507092528 | 4 | 243 | 1.6 | 6.4 | 0.00 | 1.52 | 0.00 | 95 | 1006.6 |
| 20260507092029 | 4 | 270 | 1.6 | 6.4 | 0.00 | 1.52 | 0.00 | 95 | 1006.6 |
| 20260507091535 | 4 | 264 | 1.6 | 6.4 | 0.00 | 1.52 | 0.00 | 95 | 1006.6 |
| 20260507091029 | 4 | 273 | 3.2 | 6.4 | 0.00 | 1.52 | 0.00 | 95 | 1006.8 |
| 20260507090526 | 3 | 257 | 0.0 | 4.8 | 0.00 | 1.52 | 0.00 | 94 | 1006.8 |
| 20260507090044 | 3 | 252 | 1.6 | 4.8 | 0.00 | 1.52 | 0.00 | 94 | 1006.7 |
| 20260507085527 | 4 | 0 | 1.6 | 6.4 | 0.00 | 1.52 | 0.00 | 94 | 1006.4 |
| 20260507085031 | 4 | 0 | 1.6 | 6.4 | 0.00 | 1.52 | 0.00 | 94 | 1006.3 |
| 20260507084541 | 4 | 322 | 1.6 | 6.4 | 0.00 | 1.52 | 0.00 | 94 | 1006.5 |
| 20260507084030 | 4 | 0 | 0.0 | 3.2 | 0.00 | 1.52 | 0.00 | 94 | 1006.5 |
| 20260507083531 | 4 | 0 | 0.0 | 4.8 | 0.00 | 1.52 | 0.00 | 94 | 1006.2 |
| 20260507083038 | 4 | 293 | 0.0 | 4.8 | 0.00 | 1.52 | 0.00 | 94 | 1006.6 |
| 20260507082531 | 4 | 302 | 0.0 | 9.7 | 0.00 | 1.52 | 0.00 | 94 | 1006.4 |
| 20260507082030 | 4 | 296 | 0.0 | 9.7 | 0.00 | 1.52 | 0.00 | 94 | 1006.3 |
| 20260507081542 | 4 | 276 | 0.0 | 9.7 | 0.00 | 1.52 | 0.00 | 94 | 1006.3 |
| 20260507081033 | 4 | 279 | 1.6 | 9.7 | 0.00 | 1.52 | 0.00 | 93 | 1006.3 |
| 20260507080529 | 5 | 311 | 0.0 | 4.8 | 0.00 | 1.52 | 0.00 | 93 | 1006.1 |
| 20260507080039 | 5 | 333 | 0.0 | 6.4 | 0.00 | 1.52 | 0.00 | 93 | 1006.3 |
| 20260507075532 | 5 | 336 | 0.0 | 6.4 | 0.00 | 1.52 | 0.00 | 93 | 1006.5 |
| 20260507075031 | 5 | 277 | 3.2 | 6.4 | 0.00 | 1.52 | 0.00 | 94 | 1006.5 |
| 20260507074548 | 5 | 290 | 1.6 | 6.4 | 0.00 | 1.52 | 0.00 | 94 | 1006.2 |
| 20260507074030 | 5 | 328 | 1.6 | 9.7 | 0.00 | 1.52 | 0.00 | 93 | 1006.2 |
| 20260507073531 | 5 | 338 | 1.6 | 11.3 | 0.00 | 1.52 | 0.00 | 93 | 1006.1 |
| 20260507073048 | 5 | 321 | 3.2 | 11.3 | 0.00 | 1.52 | 0.00 | 93 | 1006.2 |
| 20260507072531 | 5 | 275 | 1.6 | 6.4 | 0.00 | 1.52 | 0.00 | 93 | 1006.4 |
| 20260507072030 | 5 | 259 | 1.6 | 6.4 | 0.00 | 1.52 | 0.00 | 93 | 1006.1 |
| 20260507071542 | 5 | 263 | 1.6 | 6.4 | 0.00 | 1.52 | 0.00 | 93 | 1005.6 |
| 20260507071030 | 5 | 302 | 1.6 | 6.4 | 0.00 | 1.52 | 0.00 | 93 | 1005.8 |
| 20260507070530 | 5 | 305 | 1.6 | 9.7 | 0.00 | 1.52 | 0.00 | 93 | 1005.8 |
| 20260507070049 | 5 | 268 | 3.2 | 12.9 | 0.00 | 1.52 | 0.00 | 93 | 1005.8 |
| 20260507065527 | 5 | 302 | 3.2 | 12.9 | 0.00 | 1.52 | 0.00 | 93 | 1005.6 |
| 20260507065027 | 5 | 305 | 4.8 | 9.7 | 0.00 | 1.52 | 0.00 | 93 | 1005.6 |
| 20260507064546 | 5 | 284 | 3.2 | 9.7 | 0.00 | 1.52 | 0.00 | 93 | 1005.7 |
| 20260507064032 | 5 | 9 | 3.2 | 9.7 | 0.00 | 1.52 | 0.00 | 93 | 1005.8 |
| 20260507063529 | 5 | 340 | 3.2 | 9.7 | 0.00 | 1.52 | 0.00 | 93 | 1005.9 |
| 20260507063039 | 5 | 333 | 3.2 | 8.0 | 0.00 | 1.52 | 0.00 | 93 | 1006.1 |
| 20260507062530 | 5 | 336 | 3.2 | 11.3 | 0.00 | 1.52 | 0.00 | 94 | 1006.0 |
| 20260507062032 | 5 | 296 | 3.2 | 11.3 | 0.00 | 1.52 | 0.00 | 93 | 1005.9 |
| 20260507061545 | 5 | 269 | 3.2 | 11.3 | 0.00 | 1.52 | 0.00 | 94 | 1005.9 |
| 20260507061030 | 5 | 267 | 3.2 | 9.7 | 0.00 | 1.52 | 0.00 | 93 | 1005.9 |
| 20260507060530 | 5 | 342 | 3.2 | 11.3 | 0.00 | 1.52 | 0.00 | 93 | 1005.9 |
| 20260507060042 | 5 | 285 | 3.2 | 11.3 | 0.00 | 1.52 | 0.00 | 93 | 1006.1 |
| 20260507055531 | 5 | 0 | 4.8 | 14.5 | 0.00 | 1.52 | 0.00 | 94 | 1006.1 |
| 20260507055031 | 5 | 272 | 3.2 | 14.5 | 0.00 | 1.52 | 0.00 | 94 | 1006.0 |
| 20260507054540 | 5 | 309 | 6.4 | 16.1 | 0.00 | 1.52 | 0.00 | 94 | 1006.1 |
| 20260507054034 | 5 | 265 | 4.8 | 16.1 | 0.00 | 1.52 | 0.00 | 94 | 1006.3 |
| 20260507053531 | 5 | 339 | 4.8 | 16.1 | 0.00 | 1.52 | 0.00 | 94 | 1006.4 |
| 20260507053040 | 5 | 329 | 4.8 | 16.1 | 0.00 | 1.52 | 0.00 | 94 | 1006.5 |
| 20260507052530 | 6 | 313 | 4.8 | 16.1 | 0.00 | 1.52 | 0.00 | 94 | 1006.3 |
| 20260507052030 | 6 | 333 | 4.8 | 12.9 | 0.00 | 1.52 | 0.00 | 94 | 1006.0 |
| 20260507051540 | 6 | 250 | 4.8 | 12.9 | 0.00 | 1.52 | 0.00 | 94 | 1006.2 |
| 20260507051029 | 6 | 294 | 3.2 | 9.7 | 0.00 | 1.52 | 0.00 | 94 | 1006.2 |
| 20260507050529 | 6 | 331 | 3.2 | 9.7 | 0.00 | 1.52 | 0.00 | 94 | 1005.8 |
| 20260507050039 | 6 | 292 | 4.8 | 11.3 | 0.00 | 1.52 | 0.00 | 94 | 1006.2 |
| 20260507045530 | 6 | 277 | 4.8 | 12.9 | 0.00 | 1.52 | 0.00 | 94 | 1006.2 |
| 20260507045029 | 6 | 258 | 4.8 | 12.9 | 0.00 | 1.52 | 0.00 | 94 | 1006.2 |
| 20260507044548 | 6 | 265 | 3.2 | 12.9 | 0.00 | 1.52 | 0.00 | 94 | 1005.9 |
| 20260507044032 | 6 | 272 | 1.6 | 6.4 | 0.03 | 1.52 | 0.00 | 94 | 1006.0 |
| 20260507043530 | 6 | 313 | 1.6 | 9.7 | 0.03 | 1.52 | 0.00 | 94 | 1006.1 |
| 20260507043042 | 6 | 314 | 3.2 | 9.7 | 0.03 | 1.52 | 0.00 | 94 | 1006.1 |
| 20260507042529 | 6 | 323 | 1.6 | 11.3 | 0.03 | 1.52 | 0.00 | 94 | 1006.2 |
| 20260507042033 | 6 | 246 | 1.6 | 11.3 | 0.03 | 1.52 | 0.00 | 94 | 1006.2 |
| 20260507041545 | 6 | 272 | 1.6 | 12.9 | 0.03 | 1.52 | 0.00 | 94 | 1006.1 |
| 20260507041030 | 6 | 0 | 3.2 | 16.1 | 0.03 | 1.52 | 0.00 | 94 | 1006.0 |
| 20260507040530 | 6 | 311 | 3.2 | 16.1 | 0.03 | 1.52 | 0.00 | 94 | 1006.1 |
| 20260507040051 | 6 | 259 | 4.8 | 17.7 | 0.03 | 1.52 | 0.00 | 93 | 1006.0 |
| 20260507035534 | 6 | 299 | 6.4 | 17.7 | 0.05 | 1.52 | 1.52 | 93 | 1006.0 |
| 20260507035029 | 6 | 287 | 3.2 | 17.7 | 0.05 | 1.52 | 1.52 | 93 | 1006.0 |
| 20260507034543 | 6 | 284 | 8.0 | 17.7 | 0.05 | 1.52 | 1.52 | 93 | 1006.0 |
| 20260507034029 | 6 | 11 | 6.4 | 17.7 | 0.03 | 1.47 | 1.47 | 94 | 1006.2 |
| 20260507033531 | 6 | 306 | 4.8 | 17.7 | 0.03 | 1.47 | 1.47 | 94 | 1006.2 |
| 20260507033058 | 6 | 236 | 4.8 | 17.7 | 0.03 | 1.47 | 1.47 | 93 | 1006.1 |
| 20260507032530 | 6 | 317 | 6.4 | 17.7 | 0.03 | 1.47 | 1.47 | 93 | 1006.0 |
| 20260507032038 | 6 | 302 | 4.8 | 17.7 | 0.05 | 1.47 | 1.47 | 93 | 1006.1 |
| 20260507031553 | 6 | 275 | 4.8 | 24.1 | 0.05 | 1.47 | 1.47 | 94 | 1005.9 |
| 20260507031029 | 6 | 315 | 6.4 | 24.1 | 0.05 | 1.47 | 1.47 | 93 | 1006.0 |
| 20260507030530 | 6 | 360 | 9.7 | 24.1 | 0.05 | 1.47 | 1.47 | 93 | 1006.0 |
| 20260507030101 | 7 | 329 | 6.4 | 14.5 | 0.08 | 1.47 | 1.47 | 94 | 1006.1 |
| 20260507025529 | 7 | 327 | 6.4 | 19.3 | 0.05 | 1.47 | 1.47 | 94 | 1006.1 |
| 20260507025031 | 7 | 278 | 6.4 | 19.3 | 0.05 | 1.47 | 1.47 | 94 | 1006.0 |
| 20260507024555 | 7 | 317 | 6.4 | 19.3 | 0.05 | 1.47 | 1.47 | 94 | 1006.0 |
| 20260507024030 | 7 | 307 | 4.8 | 16.1 | 0.05 | 1.47 | 1.47 | 94 | 1006.0 |
| 20260507023529 | 7 | 287 | 6.4 | 17.7 | 0.08 | 1.47 | 1.47 | 94 | 1005.9 |
| 20260507023033 | 7 | 339 | 8.0 | 17.7 | 0.10 | 1.47 | 1.47 | 94 | 1005.9 |
| 20260507022529 | 7 | 340 | 8.0 | 17.7 | 0.10 | 1.47 | 1.47 | 94 | 1005.9 |
| 20260507022031 | 7 | 253 | 6.4 | 17.7 | 0.10 | 1.45 | 1.45 | 95 | 1006.1 |
| 20260507021550 | 7 | 290 | 4.8 | 16.1 | 0.10 | 1.45 | 1.45 | 95 | 1006.0 |
| 20260507021031 | 8 | 294 | 4.8 | 16.1 | 0.13 | 1.45 | 1.45 | 95 | 1005.8 |
| 20260507020531 | 8 | 319 | 3.2 | 17.7 | 0.13 | 1.45 | 1.45 | 95 | 1006.0 |
| 20260507020053 | 8 | 308 | 8.0 | 17.7 | 0.10 | 1.42 | 1.42 | 94 | 1006.0 |
| 20260507015530 | 8 | 292 | 6.4 | 16.1 | 0.10 | 1.42 | 1.42 | 94 | 1006.0 |
| 20260507015030 | 8 | 260 | 6.4 | 16.1 | 0.10 | 1.42 | 1.42 | 94 | 1005.9 |
| 20260507014549 | 8 | 288 | 6.4 | 16.1 | 0.10 | 1.42 | 1.42 | 94 | 1005.8 |
| 20260507014030 | 8 | 242 | 6.4 | 19.3 | 0.10 | 1.42 | 1.42 | 94 | 1005.7 |
| 20260507013530 | 8 | 267 | 6.4 | 20.9 | 0.10 | 1.40 | 1.40 | 94 | 1005.7 |
| 20260507013039 | 8 | 252 | 8.0 | 24.1 | 0.08 | 1.37 | 1.37 | 94 | 1005.6 |
| 20260507012534 | 8 | 274 | 9.7 | 24.1 | 0.08 | 1.37 | 1.37 | 93 | 1005.7 |
| 20260507012031 | 8 | 259 | 8.0 | 24.1 | 0.05 | 1.32 | 1.32 | 94 | 1005.5 |
| 20260507011547 | 9 | 344 | 6.4 | 20.9 | 0.05 | 1.32 | 1.32 | 94 | 1005.4 |
| 20260507011031 | 9 | 298 | 4.8 | 16.1 | 0.03 | 1.32 | 1.32 | 94 | 1005.4 |
| 20260507010531 | 9 | 301 | 6.4 | 14.5 | 0.03 | 1.32 | 1.32 | 94 | 1005.2 |
| 20260507010045 | 9 | 336 | 4.8 | 16.1 | 0.03 | 1.32 | 1.32 | 93 | 1005.2 |
| 20260507005532 | 10 | 334 | 6.4 | 17.7 | 0.05 | 1.32 | 1.32 | 93 | 1005.3 |
| 20260507005034 | 10 | 266 | 6.4 | 17.7 | 0.08 | 1.32 | 1.32 | 93 | 1005.2 |
| 20260507004539 | 10 | 10 | 6.4 | 14.5 | 0.10 | 1.32 | 1.32 | 94 | 1005.2 |
| 20260507004030 | 10 | 317 | 4.8 | 14.5 | 0.15 | 1.32 | 1.32 | 94 | 1005.0 |
| 20260507003531 | 10 | 280 | 1.6 | 11.3 | 0.20 | 1.30 | 1.30 | 94 | 1005.1 |
| 20260507003039 | 10 | 259 | 3.2 | 12.9 | 0.30 | 1.30 | 1.30 | 94 | 1004.8 |
| 20260507002530 | 10 | 279 | 1.6 | 12.9 | 0.51 | 1.30 | 1.30 | 94 | 1004.7 |
| 20260507002030 | 11 | 253 | 6.4 | 12.9 | 0.53 | 1.30 | 1.30 | 94 | 1004.6 |
| 20260507001543 | 11 | 267 | 4.8 | 11.3 | 0.53 | 1.30 | 1.30 | 94 | 1004.4 |
| 20260507001029 | 11 | 292 | 3.2 | 16.1 | 0.53 | 1.30 | 1.30 | 94 | 1004.4 |
| 20260507000532 | 11 | 256 | 6.4 | 16.1 | 0.53 | 1.30 | 1.30 | 93 | 1004.4 |
| 20260507000044 | 11 | 288 | 3.2 | 20.9 | 0.53 | 1.30 | 1.30 | 93 | 1004.1 |
| 20260506235530 | 11 | 331 | 4.8 | 20.9 | 0.51 | 1.27 | 1.27 | 93 | 1003.9 |
| 20260506235030 | 12 | 0 | 6.4 | 20.9 | 0.51 | 1.24 | 1.24 | 92 | 1003.9 |
| 20260506234604 | 12 | 297 | 12.9 | 20.9 | 0.48 | 1.22 | 1.22 | 92 | 1003.7 |
| 20260506234034 | 13 | 307 | 6.4 | 19.3 | 0.43 | 1.17 | 1.17 | 95 | 1003.7 |
| 20260506233531 | 13 | 288 | 1.6 | 9.7 | 0.36 | 1.09 | 1.09 | 95 | 1003.6 |
| 20260506233047 | 13 | 273 | 3.2 | 6.4 | 0.20 | 0.94 | 0.94 | 95 | 1003.5 |
| 20260506232532 | 13 | 238 | 3.2 | 6.4 | 0.05 | 0.79 | 0.79 | 94 | 1003.4 |
| 20260506232030 | 13 | 208 | 1.6 | 6.4 | 0.03 | 0.76 | 0.76 | 94 | 1003.3 |
| 20260506231552 | 13 | 232 | 1.6 | 9.7 | 0.05 | 0.76 | 0.76 | 94 | 1003.2 |
| 20260506231029 | 13 | 231 | 3.2 | 12.9 | 0.05 | 0.76 | 0.76 | 94 | 1003.3 |
| 20260506230533 | 13 | 187 | 4.8 | 12.9 | 0.05 | 0.76 | 0.76 | 94 | 1003.3 |
| 20260506230038 | 13 | 279 | 4.8 | 12.9 | 0.05 | 0.76 | 0.76 | 94 | 1003.4 |
| 20260506225530 | 13 | 205 | 4.8 | 16.1 | 0.05 | 0.76 | 0.76 | 93 | 1003.5 |
| 20260506225032 | 14 | 247 | 6.4 | 16.1 | 0.03 | 0.74 | 0.74 | 93 | 1003.4 |
| 20260506224541 | 14 | 223 | 1.6 | 3.2 | 0.03 | 0.74 | 0.74 | 94 | 1003.3 |
| 20260506224031 | 14 | 223 | 0.0 | 3.2 | 0.03 | 0.74 | 0.74 | 94 | 1003.3 |
| 20260506223532 | 14 | 0 | 0.0 | 4.8 | 0.03 | 0.74 | 0.74 | 93 | 1003.3 |
| 20260506223042 | 14 | 223 | 0.0 | 6.4 | 0.03 | 0.74 | 0.74 | 93 | 1003.4 |
| 20260506222530 | 14 | 217 | 1.6 | 8.0 | 0.03 | 0.74 | 0.74 | 93 | 1003.3 |
| 20260506222030 | 14 | 188 | 1.6 | 9.7 | 0.03 | 0.74 | 0.74 | 92 | 1003.3 |
| 20260506221539 | 14 | 178 | 1.6 | 12.9 | 0.00 | 0.71 | 0.71 | 92 | 1003.3 |
| 20260506221030 | 14 | 222 | 4.8 | 12.9 | 0.00 | 0.71 | 0.71 | 92 | 1003.3 |
| 20260506220530 | 14 | 178 | 4.8 | 12.9 | 0.00 | 0.71 | 0.71 | 92 | 1003.2 |
| 20260506220039 | 14 | 190 | 4.8 | 12.9 | 0.00 | 0.71 | 0.71 | 92 | 1003.2 |
| 20260506215530 | 15 | 177 | 4.8 | 14.5 | 0.00 | 0.74 | 0.71 | 92 | 1003.2 |
| 20260506215030 | 15 | 189 | 6.4 | 16.1 | 0.00 | 0.74 | 0.71 | 92 | 1003.1 |
| 20260506214545 | 15 | 201 | 6.4 | 16.1 | 0.00 | 0.74 | 0.71 | 92 | 1003.1 |
| 20260506214034 | 15 | 167 | 6.4 | 14.5 | 0.00 | 0.74 | 0.71 | 91 | 1003.2 |
| 20260506213533 | 15 | 143 | 6.4 | 12.9 | 0.00 | 0.74 | 0.71 | 91 | 1003.2 |
| 20260506213043 | 15 | 178 | 6.4 | 20.9 | 0.00 | 0.74 | 0.71 | 91 | 1003.3 |
| 20260506212530 | 15 | 239 | 6.4 | 20.9 | 0.00 | 0.74 | 0.71 | 90 | 1003.2 |
| 20260506212031 | 15 | 194 | 9.7 | 20.9 | 0.00 | 0.74 | 0.71 | 90 | 1003.4 |
| 20260506211541 | 15 | 200 | 8.0 | 19.3 | 0.00 | 0.74 | 0.71 | 91 | 1003.4 |
| 20260506211030 | 15 | 175 | 8.0 | 20.9 | 0.00 | 0.74 | 0.71 | 91 | 1003.4 |
| 20260506210531 | 15 | 218 | 6.4 | 22.5 | 0.00 | 0.74 | 0.71 | 91 | 1003.4 |
| 20260506210040 | 15 | 207 | 8.0 | 22.5 | 0.00 | 0.74 | 0.71 | 91 | 1003.4 |
| 20260506205533 | 15 | 165 | 11.3 | 22.5 | 0.00 | 0.74 | 0.71 | 91 | 1003.4 |
| 20260506205030 | 14 | 215 | 11.3 | 22.5 | 0.00 | 0.74 | 0.71 | 92 | 1003.3 |
| 20260506204539 | 15 | 175 | 8.0 | 22.5 | 0.00 | 0.74 | 0.71 | 92 | 1003.4 |
| 20260506204031 | 14 | 181 | 12.9 | 20.9 | 0.00 | 0.74 | 0.71 | 92 | 1003.5 |
| 20260506203532 | 15 | 190 | 6.4 | 29.0 | 0.00 | 0.74 | 0.71 | 93 | 1003.6 |
| 20260506203039 | 14 | 183 | 11.3 | 29.0 | 0.00 | 0.74 | 0.71 | 92 | 1003.5 |
| 20260506202530 | 14 | 205 | 6.4 | 12.9 | 0.00 | 0.74 | 0.71 | 93 | 1003.5 |
| 20260506202030 | 14 | 142 | 4.8 | 16.1 | 0.00 | 0.74 | 0.71 | 94 | 1003.5 |
| 20260506201541 | 14 | 177 | 9.7 | 16.1 | 0.03 | 0.74 | 0.71 | 94 | 1003.6 |
| 20260506201029 | 14 | 170 | 4.8 | 19.3 | 0.08 | 0.74 | 0.71 | 94 | 1003.7 |
| 20260506200530 | 14 | 180 | 8.0 | 19.3 | 0.13 | 0.74 | 0.71 | 94 | 1003.7 |
| 20260506200040 | 14 | 148 | 8.0 | 16.1 | 0.15 | 0.74 | 0.71 | 94 | 1003.7 |
| 20260506195533 | 14 | 119 | 4.8 | 14.5 | 0.18 | 0.74 | 0.71 | 94 | 1003.7 |
| 20260506195032 | 14 | 171 | 4.8 | 14.5 | 0.18 | 0.74 | 0.71 | 94 | 1003.9 |
| 20260506194539 | 14 | 159 | 4.8 | 11.3 | 0.20 | 0.74 | 0.71 | 94 | 1004.0 |
| 20260506194030 | 14 | 138 | 4.8 | 11.3 | 0.23 | 0.74 | 0.71 | 94 | 1004.0 |
| 20260506193529 | 14 | 147 | 3.2 | 11.3 | 0.25 | 0.74 | 0.71 | 94 | 1004.2 |
| 20260506193037 | 14 | 204 | 3.2 | 8.0 | 0.25 | 0.74 | 0.71 | 94 | 1004.3 |
| 20260506192529 | 14 | 160 | 3.2 | 9.7 | 0.25 | 0.74 | 0.71 | 94 | 1004.2 |
| 20260506192034 | 14 | 154 | 1.6 | 9.7 | 0.25 | 0.71 | 0.69 | 94 | 1004.3 |
| 20260506191535 | 14 | 248 | 3.2 | 8.0 | 0.25 | 0.71 | 0.69 | 94 | 1004.5 |
| 20260506191030 | 14 | 206 | 0.0 | 8.0 | 0.23 | 0.66 | 0.64 | 94 | 1004.5 |
| 20260506190530 | 14 | 0 | 1.6 | 8.0 | 0.20 | 0.61 | 0.58 | 94 | 1004.4 |
| 20260506190043 | 14 | 148 | 3.2 | 11.3 | 0.18 | 0.58 | 0.56 | 94 | 1004.5 |
| 20260506185530 | 14 | 195 | 4.8 | 11.3 | 0.18 | 0.56 | 0.53 | 94 | 1004.6 |
| 20260506185029 | 14 | 178 | 4.8 | 12.9 | 0.20 | 0.56 | 0.53 | 93 | 1004.7 |
| 20260506184546 | 14 | 174 | 4.8 | 12.9 | 0.20 | 0.53 | 0.51 | 93 | 1004.8 |
| 20260506184030 | 14 | 219 | 4.8 | 12.9 | 0.23 | 0.51 | 0.48 | 93 | 1004.8 |
| 20260506183530 | 14 | 140 | 6.4 | 12.9 | 0.23 | 0.48 | 0.46 | 93 | 1004.8 |
| 20260506183039 | 15 | 173 | 4.8 | 14.5 | 0.25 | 0.48 | 0.46 | 93 | 1004.8 |
| 20260506182529 | 15 | 167 | 1.6 | 16.1 | 0.28 | 0.48 | 0.46 | 93 | 1004.6 |
| 20260506182029 | 15 | 165 | 6.4 | 16.1 | 0.28 | 0.46 | 0.43 | 93 | 1005.2 |
| 20260506181539 | 15 | 157 | 6.4 | 20.9 | 0.30 | 0.46 | 0.43 | 92 | 1005.2 |
| 20260506181029 | 15 | 177 | 9.7 | 20.9 | 0.30 | 0.43 | 0.41 | 92 | 1005.4 |
| 20260506180529 | 15 | 218 | 3.2 | 16.1 | 0.28 | 0.41 | 0.38 | 93 | 1005.4 |
| 20260506180037 | 14 | 188 | 8.0 | 16.1 | 0.30 | 0.41 | 0.38 | 92 | 1005.4 |
| 20260506175528 | 15 | 209 | 6.4 | 16.1 | 0.28 | 0.38 | 0.36 | 93 | 1005.7 |
| 20260506175028 | 15 | 201 | 3.2 | 16.1 | 0.28 | 0.36 | 0.33 | 92 | 1005.8 |
| 20260506174538 | 15 | 190 | 3.2 | 14.5 | 0.28 | 0.33 | 0.30 | 93 | 1005.7 |
| 20260506174034 | 15 | 182 | 6.4 | 14.5 | 0.23 | 0.28 | 0.25 | 92 | 1005.8 |
| 20260506173530 | 15 | 169 | 6.4 | 12.9 | 0.23 | 0.25 | 0.23 | 92 | 1005.8 |
| 20260506173117 | 15 | 164 | 4.8 | 12.9 | 0.20 | 0.23 | 0.20 | 92 | 1005.9 |
| 20260506172534 | 15 | 134 | 1.6 | 8.0 | 0.18 | 0.20 | 0.18 | 92 | 1005.9 |
| 20260506172030 | 15 | 194 | 3.2 | 8.0 | 0.15 | 0.18 | 0.15 | 91 | 1005.9 |
| 20260506171545 | 15 | 184 | 1.6 | 6.4 | 0.13 | 0.15 | 0.13 | 91 | 1005.8 |
| 20260506171033 | 15 | 162 | 1.6 | 6.4 | 0.10 | 0.13 | 0.10 | 90 | 1005.8 |
| 20260506170529 | 15 | 196 | 1.6 | 6.4 | 0.10 | 0.13 | 0.10 | 90 | 1005.9 |
| 20260506170050 | 15 | 158 | 1.6 | 11.3 | 0.08 | 0.10 | 0.08 | 89 | 1005.9 |
| 20260506165529 | 15 | 188 | 1.6 | 12.9 | 0.05 | 0.08 | 0.05 | 89 | 1005.8 |
| 20260506165030 | 15 | 165 | 1.6 | 12.9 | 0.05 | 0.08 | 0.05 | 87 | 1005.8 |
| 20260506164541 | 15 | 203 | 3.2 | 12.9 | 0.03 | 0.05 | 0.03 | 86 | 1005.9 |
| 20260506164030 | 15 | 186 | 3.2 | 14.5 | 0.03 | 0.05 | 0.03 | 85 | 1006.0 |
| 20260506163535 | 15 | 207 | 4.8 | 17.7 | 0.00 | 0.03 | 0.00 | 83 | 1006.1 |
| 20260506163042 | 16 | 211 | 8.0 | 17.7 | 0.00 | 0.03 | 0.00 | 82 | 1006.1 |
| 20260506162530 | 16 | 192 | 4.8 | 19.3 | 0.00 | 0.03 | 0.00 | 81 | 1006.0 |
| 20260506162033 | 16 | 231 | 6.4 | 19.3 | 0.00 | 0.03 | 0.00 | 80 | 1006.0 |
| 20260506161540 | 16 | 214 | 6.4 | 17.7 | 0.00 | 0.03 | 0.00 | 80 | 1006.2 |
| 20260506161030 | 16 | 189 | 6.4 | 30.6 | 0.00 | 0.03 | 0.00 | 79 | 1006.2 |
| 20260506160530 | 16 | 202 | 12.9 | 30.6 | 0.00 | 0.03 | 0.00 | 79 | 1006.4 |
| 20260506160040 | 16 | 182 | 8.0 | 17.7 | 0.00 | 0.03 | 0.00 | 79 | 1006.4 |
| 20260506155530 | 16 | 177 | 6.4 | 20.9 | 0.00 | 0.03 | 0.00 | 79 | 1006.3 |
| 20260506155032 | 16 | 201 | 9.7 | 20.9 | 0.00 | 0.03 | 0.00 | 78 | 1006.4 |
| 20260506154553 | 16 | 225 | 6.4 | 16.1 | 0.00 | 0.03 | 0.00 | 80 | 1006.7 |
| 20260506154031 | 16 | 232 | 6.4 | 22.5 | 0.00 | 0.03 | 0.00 | 80 | 1006.7 |
| 20260506153533 | 16 | 261 | 9.7 | 22.5 | 0.00 | 0.03 | 0.00 | 80 | 1006.8 |
| 20260506153047 | 16 | 216 | 4.8 | 20.9 | 0.00 | 0.03 | 0.00 | 80 | 1007.1 |
| 20260506152532 | 16 | 209 | 8.0 | 20.9 | 0.00 | 0.03 | 0.00 | 78 | 1007.2 |
| 20260506152032 | 16 | 258 | 11.3 | 20.9 | 0.00 | 0.03 | 0.00 | 78 | 1007.3 |
| 20260506151551 | 16 | 269 | 4.8 | 14.5 | 0.00 | 0.03 | 0.00 | 79 | 1007.2 |
| 20260506151030 | 16 | 271 | 6.4 | 14.5 | 0.00 | 0.03 | 0.00 | 77 | 1007.3 |
| 20260506150533 | 16 | 261 | 4.8 | 12.9 | 0.00 | 0.03 | 0.00 | 78 | 1007.3 |
| 20260506150041 | 16 | 223 | 3.2 | 9.7 | 0.00 | 0.03 | 0.00 | 77 | 1007.1 |
| 20260506145531 | 16 | 228 | 3.2 | 9.7 | 0.00 | 0.03 | 0.00 | 77 | 1007.0 |
| 20260506145032 | 16 | 231 | 3.2 | 14.5 | 0.00 | 0.03 | 0.00 | 79 | 1007.0 |
| 20260506144542 | 16 | 0 | 3.2 | 16.1 | 0.00 | 0.03 | 0.00 | 78 | 1007.0 |
| 20260506144030 | 16 | 179 | 6.4 | 16.1 | 0.00 | 0.03 | 0.00 | 77 | 1006.9 |
| 20260506143530 | 16 | 257 | 6.4 | 19.3 | 0.00 | 0.03 | 0.00 | 78 | 1006.8 |
| 20260506143040 | 16 | 207 | 4.8 | 19.3 | 0.00 | 0.03 | 0.00 | 77 | 1006.9 |
| 20260506142530 | 16 | 215 | 6.4 | 16.1 | 0.00 | 0.03 | 0.00 | 78 | 1007.0 |
| 20260506142029 | 16 | 261 | 6.4 | 17.7 | 0.00 | 0.03 | 0.00 | 77 | 1006.9 |
| 20260506141542 | 16 | 247 | 8.0 | 19.3 | 0.00 | 0.03 | 0.00 | 78 | 1006.9 |
| 20260506141030 | 16 | 237 | 6.4 | 19.3 | 0.00 | 0.03 | 0.00 | 77 | 1007.1 |
| 20260506140530 | 16 | 278 | 4.8 | 12.9 | 0.00 | 0.03 | 0.00 | 78 | 1007.1 |
| 20260506140042 | 16 | 245 | 3.2 | 12.9 | 0.00 | 0.03 | 0.00 | 81 | 1007.0 |
| 20260506135530 | 15 | 258 | 4.8 | 12.9 | 0.00 | 0.03 | 0.00 | 80 | 1007.1 |
| 20260506135029 | 15 | 299 | 3.2 | 12.9 | 0.00 | 0.03 | 0.00 | 81 | 1007.0 |
| 20260506134541 | 15 | 307 | 3.2 | 11.3 | 0.00 | 0.03 | 0.00 | 81 | 1007.0 |
| 20260506134029 | 15 | 265 | 4.8 | 11.3 | 0.00 | 0.03 | 0.00 | 81 | 1007.0 |
| 20260506133529 | 15 | 236 | 3.2 | 11.3 | 0.00 | 0.03 | 0.00 | 81 | 1007.0 |
| 20260506133039 | 15 | 288 | 1.6 | 9.7 | 0.00 | 0.03 | 0.00 | 82 | 1007.1 |
| 20260506132533 | 15 | 257 | 3.2 | 11.3 | 0.00 | 0.03 | 0.00 | 82 | 1007.2 |
| 20260506132032 | 15 | 232 | 4.8 | 11.3 | 0.00 | 0.03 | 0.00 | 82 | 1007.3 |
| 20260506131550 | 14 | 220 | 3.2 | 11.3 | 0.00 | 0.03 | 0.00 | 82 | 1007.4 |